Location: *
(37.5724°S, 58.0067°E)
Time: 18:50:21
(UTC+00:00)

N. Korean satellite - Pass Details

Date: 04 December 2020
Orbit: 453 x 502 km, 97.2° (Epoch: 16 January)

Event Time Altitude Azimuth Distance (km) Brightness Sun altitude
Rises 00:02:37 0° 44° (NE) 2,595 10.4 -7.1°
Reaches altitude 10° 00:05:04 10° 61° (ENE) 1,716 9.7 -6.7°
Maximum altitude 00:07:51 21° 110° (ESE) 1,197 9.8 -6.2°
Drops below altitude 10° 00:10:39 10° 159° (SSE) 1,721 10.3 -5.8°
Sets 00:13:06 0° 175° (S) 2,605 10.9 -5.4°
